Location: Unspecified
(51.5147°N, 7.4673°E)
Time: 09:25:02
(UTC+01:00)

Vanguard 2 - Pass Details

Date: 25 February 2026
Orbit: 553 x 2896 km, 32.9° (Epoch: 7 March)

Event Time Altitude Azimuth Distance (km) Brightness Sun altitude
Rises 02:29:39 0° 204° (SSW) 5,554 - -42.4°
Reaches altitude 10° 02:38:55 10° 166° (SSE) 3,695 - -41.5°
Maximum altitude 02:39:26 10° 162° (SSE) 3,639 - -41.4°
Drops below altitude 10° 02:39:56 10° 159° (SSE) 3,592 - -41.4°
Exits shadow 02:45:09 - 125° (SE) 3,650 11.0 -40.8°
Sets 02:46:40 0° 116° (ESE) 3,856 11.3 -40.7°
